This demonstration page uses our WeatherBlox Daily Observations layout. Learn more.

Left ArrowRight Arrow

Hourly Observations for July 1, 2018

Temp ( °F °C ) Dew Point ( °F °C ) Humidity (%) Winds ( mph kmh ) Pressure ( in mb ) Visibility ( mi km ) Precip ( " mm )
12:53 am 00:53 Clear 79 26.1 43 6.1 28 28 N 6 9 29.87 1012 10 16 0.00 0.00
1:53 am 01:53 Clear 81 27.2 42 5.6 25 25 N 9 15 29.87 1012 10 16 0.00 0.00
2:53 am 02:53 Clear 85 29.4 40 4.4 20 20 N 8 13 29.86 1011 10 16 0.00 0.00
3:53 am 03:53 Clear 82 27.8 39 3.9 22 22 N 8 13 29.86 1011 10 16 0.00 0.00
4:53 am 04:53 Clear 82 27.8 39 3.9 22 22 NNW 10 17 29.86 1011 10 16 0.00 0.00
5:53 am 05:53 Sunny 82 27.8 38 3.3 21 21 NNW 10 17 29.88 1012 10 16 0.00 0.00
6:53 am 06:53 Sunny 83 28.3 38 3.3 20 20 N 10 17 29.89 1012 10 16 0.00 0.00
7:53 am 07:53 Sunny 86 30 40 4.4 20 20 NNW 8 13 29.89 1012 10 16 0.00 0.00
8:53 am 08:53 Sunny 89 31.7 40 4.4 18 18 N 18 30 29.88 1012 10 16 0.00 0.00
9:53 am 09:53 Sunny 92 33.3 41 5 17 17 NNW 15 24 29.88 1012 10 16 0.00 0.00
10:53 am 10:53 Sunny 94 34.4 43 6.1 17 17 NNW 14 22 29.87 1012 10 16 0.00 0.00
11:53 am 11:53 Sunny 98 36.7 44 6.7 16 16 N 14 22 29.86 1011 10 16 0.00 0.00
12:53 pm 12:53 Sunny 102 38.9 44 6.7 14 14 N 15 24 29.84 1011 10 16 0.00 0.00
1:53 pm 13:53 Sunny 104 40 41 5 12 12 NNW 13 20 29.82 1010 10 16 0.00 0.00
2:53 pm 14:53 Sunny 107 41.7 39 3.9 10 10 NNE 12 19 29.80 1009 10 16 0.00 0.00
3:53 pm 15:53 Sunny 108 42.2 32 0 7 7 VRB 7 11 29.78 1009 10 16 0.00 0.00
4:53 pm 16:53 Sunny 109 42.8 35 1.7 8 8 VRB 3 6 29.77 1008 10 16 0.00 0.00
5:53 pm 17:53 Sunny 109 42.8 42 5.6 10 10 VRB 5 7 29.76 1008 10 16 0.00 0.00
6:53 pm 18:53 Sunny 108 42.2 42 5.6 11 11 N 9 15 29.75 1008 10 16 0.00 0.00
7:53 pm 19:53 Sunny 104 40 39 3.9 11 11 NNE 12 19 29.76 1008 10 16 0.00 0.00
8:53 pm 20:53 Clear 97 36.1 41 5 14 14 NNE 8 13 29.78 1008 10 16 0.00 0.00
9:53 pm 21:53 Clear 95 35 43 6.1 17 17 NE 3 6 29.82 1010 10 16 0.00 0.00
10:53 pm 22:53 Clear 91 32.8 45 7.2 20 20 N 3 6 29.83 1010 10 16 0.00 0.00
11:53 pm 23:53 Clear 85 29.4 46 7.8 26 26 NNW 6 9 29.83 1010 10 16 0.00 0.00

Powered by AerisWeather